Weather Roundup
Issued by NWS

Home | Current Version | Previous Version | Text Only | Print | Product List | Glossary On
Versions: 1 2 3 4 5 6 7 8 9 10 11 12 13 14 15 16 17 18 19 20 21 22 23 24 25 26 27 28 29 30 31 32 33 34 35 36 37 38 39 40 41 42 43 44 45 46 47 48 49 50
000
NZUS93 KARX 161059
HRRWXR

CURRENT HOURLY OBSERVATIONS ACROSS
MUCH OF THE UPPER MISSISSIPPI VALLEY
NATIONAL WEATHER SERVICE LA CROSSE WI
600 AM CDT WED APR 16 2014


...SOUTHEAST MINNESOTA...


CITY           SKY/WX    TMP DP  RH WIND       PRES   REMARKS
ROCHESTER      CLOUDY    32  18  56 SE24G32   29.95F WCI  19
ROCHESTER/MAYO CLOUDY    32  16  50 SE21G36   29.96F WCI  20
WINONA         CLOUDY    34  21  60 SE16G22   30.07F WCI  23
AUSTIN         CLOUDY    34  21  60 SE22G31   29.90F WCI  22
ALBERT LEA     CLOUDY    36  23  60 SE22G28   29.86F WCI  24
DODGE CENTER   CLOUDY    36  19  51 SE29      29.91F WCI  23
PRESTON        CLOUDY    32  19  58 SE18G28   30.00F WCI  21
OWATONNA       CLOUDY    34  19  55 E22G28    29.91R WCI  22
FARIBAULT      CLOUDY    37  16  41 E18G26    29.93F WCI  27
$$

...ELSEWHERE IN MINNESOTA...


CITY           SKY/WX    TMP DP  RH WIND       PRES   REMARKS
MINNEAPOLIS    CLOUDY    33  16  49 E21G29    29.96F WCI  21
INTNL FALLS    CLEAR     15   4  61 NE6       30.14R WCI   6
DULUTH         CLOUDY    24  13  62 E10       30.09S WCI  14
RED WING       CLOUDY    36  16  44 E17G28    29.99F WCI  25
REDWOOD FALLS  CLOUDY    35  21  56 E12G22    29.81F WCI  27
MANKATO        CLOUDY    36  19  51 SE24      29.87F WCI  24
WORTHINGTON    CLOUDY    37  25  60 SE20G28   29.71F WCI  27
FAIRMONT       CLOUDY    36  25  64 SE22G30   29.80S WCI  24
$$

...SOUTHWEST WISCONSIN...


CITY           SKY/WX    TMP DP  RH WIND       PRES   REMARKS
LA CROSSE      CLOUDY    34  17  50 SE12      30.11S WCI  25
PRAIRIE DU CHI CLOUDY    33  18  53 E10G17    30.11F WCI  25
BOSCOBEL       CLOUDY    33  18  53 VRB7      30.15S WCI  27
LONE ROCK      NOT AVBL
PLATTEVILLE    PTCLDY    31  22  68 E8        30.15R WCI  24
FORT MC COY    CLOUDY    30  19  63 E6        30.15R WCI  24
VIROQUA        CLOUDY    30  20  67 SE15      30.10S WCI  19
WIS DELLS      CLOUDY    29  20  67 SE6       30.17R WCI  23
$$

...ELSEWHERE IN WISCONSIN...


CITY           SKY/WX    TMP DP  RH WIND       PRES   REMARKS
MILWAUKEE      MOCLDY    31  21  66 S6        30.26R WCI  25
MADISON        MOCLDY    28  21  75 SE5       30.21R WCI  23
GREEN BAY      CLEAR     24  20  84 CALM      30.24S
EAU CLAIRE     NOT AVBL
BLACK RVR FLS  CLOUDY    30  19  63 E3        30.14R
MEDFORD        CLOUDY    26  17  68 SE8       30.13R WCI  18
WAUSAU         CLOUDY    25  15  66 SE6       30.16R WCI  18
WIS RAPIDS     CLOUDY    27  18  69 SE8       30.18S WCI  19
MARSHFIELD     CLOUDY    26  21  81 SE10      30.14S WCI  16
RICE LAKE      NOT AVBL
$$

...NORTHEAST IOWA...


CITY           SKY/WX    TMP DP  RH WIND       PRES   REMARKS
WATERLOO       CLOUDY    36  23  59 SE16G26   29.98F WCI  26
DUBUQUE        CLOUDY    31  21  66 SE16      30.11S WCI  20
DECORAH        CLOUDY    32  19  59 SE20G28   30.02F WCI  20
MASON CITY     CLOUDY    35  24  64 SE24G31   29.89F WCI  23
CHARLES CITY   CLOUDY    34  21  60 SE20      29.97F WCI  22
OELWEIN        CLOUDY   N/A N/A N/A SE23G30   30.02F
$$

...ELSEWHERE IN IOWA...


CITY           SKY/WX    TMP DP  RH WIND       PRES   REMARKS
DES MOINES     CLOUDY    43  26  51 S14       29.91F
IOWA CITY      CLOUDY    34  25  69 SE13      30.09S WCI  25
FORT DODGE     CLOUDY    39  27  60 SE14G21   29.83F WCI  31
MARSHALLTOWN   CLOUDY    36  26  67 SE20G29   29.94F WCI  25
CEDAR RAPIDS   CLOUDY    36  22  56 SE15      30.05R WCI  27
$$

...NORTHERN ILLINOIS...


CITY           SKY/WX    TMP DP  RH WIND       PRES   REMARKS
CHICAGO-OHARE  PTCLDY    29  19  66 S8        30.26R WCI  21
DUPAGE         CLEAR     29  21  72 SE9       30.24R WCI  20
CHICAGO-MIDWAY PTCLDY    31  21  66 SE6       30.27R WCI  25
MOLINE         CLEAR     32  22  66 SE9       30.14S WCI  24
ROCKFORD       PTCLDY    30  23  75 SE12      30.23R WCI  20
STERLING       CLEAR     32  23  69 SE8       30.18S WCI  25
PEORIA         CLEAR     34  23  64 S12       30.21R WCI  25
$$

NOTE: "FAIR" INDICATES FEW OR NO CLOUDS BELOW 12,000 FEET WITH NO
SIGNIFICANT WEATHER AND/OR OBSTRUCTIONS TO VISIBILITY. WIND
SPEEDS ARE IN MILES-PER-HOUR.



USA.gov is the U.S. government's official web portal to all federal, state and local government web resources and services.